Location: Huberhof
(49.2050°N, 7.4980°E)
Time: 01:08:42
(UTC+00:00)

Aureole 3 - Pass Details

Date: 29 October 2020
Orbit: 382 x 1232 km, 82.5° (Epoch: 26 November)

Event Time Altitude Azimuth Distance (km) Brightness Sun altitude
Rises 17:30:09 0° 189° (S) 2,349 6.8 -13.0°
Reaches altitude 10° 17:32:12 10° 190° (S) 1,443 5.7 -13.4°
Maximum altitude 17:35:15 85° 278° (W) 392 2.6 -13.9°
Drops below altitude 10° 17:38:15 10° 9° (N) 1,428 5.3 -14.4°
Sets 17:40:17 0° 10° (N) 2,322 6.4 -14.7°
